This demonstration page uses our WeatherBlox Daily Observations layout. Learn more.

Left ArrowRight Arrow

36.19886, -115.1175

Hourly Observations for January 12, 2022

Temp ( °F °C ) Dew Point ( °F °C ) Humidity (%) Winds ( mph kmh ) Pressure ( in mb ) Visibility ( mi km ) Precip ( " mm )
12:53 am 00:53 Clear 47 8.3 15 -9.4 28 28 WNW 5 7 30.47 1032 10 16 0.00 0.00
1:53 am 01:53 Clear 47 8.3 15 -9.4 28 28 NW 6 9 30.45 1031 10 16 0.00 0.00
2:53 am 02:53 Clear 44 6.7 16 -8.9 32 32 W 7 11 30.44 1031 10 16 0.00 0.00
3:53 am 03:53 Clear 43 6.1 17 -8.3 35 35 W 3 6 30.43 1030 10 16 0.00 0.00
4:53 am 04:53 Clear 45 7.2 17 -8.3 33 33 NNW 8 13 30.43 1031 10 16 0.00 0.00
5:53 am 05:53 Clear 47 8.3 18 -7.8 31 31 NW 10 17 30.45 1031 10 16 0.00 0.00
6:53 am 06:53 Sunny 44 6.7 19 -7.2 37 37 W 9 15 30.48 1032 10 16 0.00 0.00
7:53 am 07:53 Sunny 46 7.8 19 -7.2 34 34 NW 5 7 30.48 1032 10 16 0.00 0.00
8:53 am 08:53 Sunny 50 10 21 -6.1 32 32 WSW 3 6 30.49 1033 10 16 0.00 0.00
9:53 am 09:53 Sunny 57 13.9 21 -6.1 25 25 Calm 30.48 1032 10 16 0.00 0.00
10:53 am 10:53 Sunny 59 15 21 -6.1 23 23 SSE 3 6 30.46 1032 10 16 0.00 0.00
11:53 am 11:53 Sunny 61 16.1 21 -6.1 21 21 ESE 5 7 30.43 1031 10 16 0.00 0.00
12:53 pm 12:53 Sunny 63 17.2 20 -6.7 19 19 SSE 3 6 30.40 1030 10 16 0.00 0.00
1:53 pm 13:53 Sunny 65 18.3 19 -7.2 17 17 ESE 5 7 30.38 1029 10 16 0.00 0.00
2:53 pm 14:53 Sunny 65 18.3 20 -6.7 18 18 Calm 30.36 1028 10 16 0.00 0.00
3:53 pm 15:53 Sunny 65 18.3 20 -6.7 18 18 Calm 30.35 1028 10 16 0.00 0.00
4:53 pm 16:53 Clear 62 16.7 20 -6.7 20 20 SE 3 6 30.36 1028 10 16 0.00 0.00
5:53 pm 17:53 Clear 58 14.4 21 -6.1 24 24 NW 5 7 30.36 1028 10 16 0.00 0.00
6:53 pm 18:53 Clear 56 13.3 24 -4.4 29 29 NW 5 7 30.38 1029 10 16 0.00 0.00
7:53 pm 19:53 Clear 53 11.7 24 -4.4 32 32 Calm 30.38 1029 10 16 0.00 0.00
8:53 pm 20:53 Clear 53 11.7 24 -4.4 32 32 NE 3 6 30.37 1029 10 16 0.00 0.00
9:53 pm 21:53 Clear 50 10 23 -5 35 35 WNW 3 6 30.38 1029 10 16 0.00 0.00
10:53 pm 22:53 Clear 49 9.4 23 -5 36 36 NW 6 9 30.38 1029 10 16 0.00 0.00
11:53 pm 23:53 Clear 49 9.4 23 -5 36 36 W 7 11 30.36 1028 10 16 0.00 0.00

Powered by AerisWeather